Home   Weather   Squamish   Past weeks
Flag for Canada

Past Weather in Squamish, British Columbia, Canada — Yesterday and Last 2 Weeks

Now
42 °F

Quite cool.


Feels Like: 40 °F
Forecast: 62 / 45 °F
Wind: 3 mph from North

Location: Squamish Airport

Current Time: Mar 19, 2019 at 4:23:02 am

Latest Report: Mar 19, 2019 at 3:00 am


Visibility: N/A

Pressure: 30.18 "Hg

Humidity: 62%

Dew Point: 30 °F

Location of SquamishLocation

Past Weather in Squamish — Graph

°F

Squamish Temperature Yesterday

Maximum temperature yesterday: 72 °F (at 4:00 pm)
Minimum temperature yesterday: 37 °F (at 7:00 am)
Average temperature yesterday: 51 °F

High & Low Weather Summary for the Past Weeks

 TemperatureHumidityPressure
High72 °F (Mar 18, 4:00 pm)100% (Mar 6, 7:00 pm)30.42 "Hg (Mar 6, 7:00 pm)
Low23 °F (Mar 9, 5:00 am)14% (Mar 4, 2:00 pm)29.61 "Hg (Mar 6, 1:00 pm)
Average38 °F72%30.13 "Hg
* Reported Mar 4 2:00 am — Mar 19 3:00 am, Squamish. Weather by CustomWeather, © 2019

Note: Actual official high and low records may vary slightly from our data, if they occured in-between our weather recording intervals... More about our weather records

Advertising

Squamish Weather History for the Previous 24 Hours

Scroll right to see more
 ConditionsComfort  
Time TempWeatherWind HumidityBarometerVisibility
3:00 am
Tue, Mar 19
42 °FQuite cool.3 mph62%30.18 "HgN/A
2:00 am44 °FQuite cool.5 mph59%30.17 "HgN/A
1:00 am43 °FQuite cool.3 mph63%30.17 "HgN/A
12:00 am46 °FCool.3 mph57%30.16 "HgN/A
11:00 pm
Mon, Mar 18
47 °FCool.3 mph56%30.16 "HgN/A
10:00 pm47 °FCool.2 mph60%30.15 "HgN/A
9:00 pm49 °FCool.2 mph60%30.14 "HgN/A
8:00 pm51 °FCool.2 mph63%30.12 "HgN/A
7:00 pm54 °FCool.2 mph53%30.11 "HgN/A
6:00 pm60 °FRefreshingly cool.1 mph40%30.10 "HgN/A
5:00 pm68 °FMild.8 mph26%30.11 "HgN/A
4:00 pm72 °FMild.6 mph21%30.12 "HgN/A
3:00 pm71 °FMild.3 mph19%30.14 "HgN/A
2:00 pm70 °FMild.5 mph20%30.17 "HgN/A
1:00 pm66 °FMild.3 mph24%30.20 "HgN/A
12:00 pm60 °FRefreshingly cool.3 mph30%30.23 "HgN/A
11:00 am56 °FRefreshingly cool.3 mph37%30.26 "HgN/A
10:00 am50 °FCool.5 mph46%30.28 "HgN/A
9:00 am44 °FQuite cool.3 mph64%30.29 "HgN/A
8:00 am40 °FQuite cool.3 mph71%30.30 "HgN/A
7:00 am37 °FChilly.3 mph78%30.30 "HgN/A
6:00 am39 °FChilly.3 mph74%30.31 "HgN/A
5:00 am41 °FQuite cool.3 mph68%30.32 "HgN/A
4:00 am42 °FQuite cool.3 mph71%30.31 "HgN/A
Weather by CustomWeather, © 2019

See weather overview